| time (UTC) | temp C | wind direction | speed KPH | gust KPH | rain 1hr cm | rain 24hr cm | rain mn cm | humidity % | barometer mb |
| 20260506165504 | 15 | 315 | 3.2 | 11.3 | 0.00 | 0.25 | 0.13 | 84 | 1009.9 |
| 20260506165005 | 15 | 303 | 4.8 | 14.5 | 0.00 | 0.25 | 0.13 | 85 | 1009.9 |
| 20260506164505 | 15 | 300 | 4.8 | 14.5 | 0.00 | 0.25 | 0.13 | 85 | 1010.0 |
| 20260506164004 | 15 | 307 | 4.8 | 12.9 | 0.00 | 0.25 | 0.13 | 85 | 1010.0 |
| 20260506163718 | 15 | 311 | 4.8 | 14.5 | 0.00 | 0.25 | 0.13 | 85 | 1010.1 |
| 20260506163005 | 15 | 327 | 4.8 | 14.5 | 0.00 | 0.25 | 0.13 | 85 | 1010.2 |
| 20260506162714 | 15 | 321 | 3.2 | 9.7 | 0.00 | 0.25 | 0.13 | 85 | 1010.2 |
| 20260506162006 | 15 | 313 | 3.2 | 9.7 | 0.00 | 0.25 | 0.13 | 85 | 1010.3 |
| 20260506161506 | 15 | 318 | 4.8 | 11.3 | 0.00 | 0.25 | 0.13 | 85 | 1010.2 |
| 20260506161004 | 15 | 322 | 3.2 | 11.3 | 0.00 | 0.25 | 0.13 | 85 | 1010.3 |
| 20260506160504 | 15 | 315 | 3.2 | 9.7 | 0.00 | 0.25 | 0.13 | 86 | 1010.3 |
| 20260506160007 | 15 | 324 | 4.8 | 17.7 | 0.00 | 0.25 | 0.13 | 86 | 1010.3 |
| 20260506155717 | 15 | 333 | 6.4 | 17.7 | 0.00 | 0.25 | 0.13 | 86 | 1010.4 |
| 20260506155005 | 15 | 325 | 3.2 | 16.1 | 0.00 | 0.25 | 0.13 | 86 | 1010.4 |
| 20260506154504 | 15 | 310 | 3.2 | 14.5 | 0.00 | 0.25 | 0.13 | 85 | 1010.4 |
| 20260506154006 | 15 | 322 | 4.8 | 14.5 | 0.00 | 0.25 | 0.13 | 85 | 1010.4 |
| 20260506153714 | 15 | 327 | 6.4 | 14.5 | 0.00 | 0.25 | 0.13 | 85 | 1010.4 |
| 20260506153217 | 15 | 335 | 6.4 | 14.5 | 0.00 | 0.25 | 0.13 | 85 | 1010.5 |
| 20260506152504 | 15 | 316 | 4.8 | 11.3 | 0.00 | 0.25 | 0.13 | 86 | 1010.5 |
| 20260506152006 | 15 | 309 | 6.4 | 19.3 | 0.00 | 0.25 | 0.13 | 86 | 1010.6 |
| 20260506151504 | 15 | 314 | 8.0 | 19.3 | 0.00 | 0.25 | 0.13 | 86 | 1010.5 |
| 20260506151004 | 15 | 318 | 4.8 | 11.3 | 0.00 | 0.25 | 0.13 | 86 | 1010.5 |
| 20260506150504 | 15 | 314 | 4.8 | 11.3 | 0.00 | 0.25 | 0.13 | 86 | 1010.5 |
| 20260506150005 | 15 | 318 | 6.4 | 12.9 | 0.00 | 0.25 | 0.13 | 86 | 1010.4 |
| 20260506145504 | 15 | 312 | 4.8 | 12.9 | 0.00 | 0.25 | 0.13 | 87 | 1010.4 |
| 20260506145004 | 15 | 302 | 3.2 | 11.3 | 0.00 | 0.25 | 0.13 | 87 | 1010.4 |
| 20260506144504 | 15 | 306 | 4.8 | 16.1 | 0.00 | 0.25 | 0.13 | 87 | 1010.5 |
| 20260506144216 | 15 | 316 | 4.8 | 16.1 | 0.00 | 0.25 | 0.13 | 87 | 1010.5 |
| 20260506143504 | 15 | 306 | 4.8 | 14.5 | 0.00 | 0.25 | 0.13 | 87 | 1010.5 |
| 20260506143004 | 15 | 304 | 3.2 | 14.5 | 0.00 | 0.25 | 0.13 | 87 | 1010.5 |
| 20260506142504 | 15 | 311 | 3.2 | 12.9 | 0.00 | 0.25 | 0.13 | 87 | 1010.5 |
| 20260506142004 | 15 | 305 | 4.8 | 16.1 | 0.00 | 0.25 | 0.13 | 86 | 1010.6 |
| 20260506141506 | 15 | 297 | 6.4 | 19.3 | 0.00 | 0.25 | 0.13 | 86 | 1010.7 |
| 20260506141004 | 15 | 312 | 8.0 | 19.3 | 0.00 | 0.25 | 0.13 | 86 | 1010.6 |
| 20260506140504 | 15 | 317 | 6.4 | 14.5 | 0.00 | 0.25 | 0.13 | 86 | 1010.7 |
| 20260506140005 | 15 | 304 | 8.0 | 19.3 | 0.00 | 0.25 | 0.13 | 85 | 1010.8 |
| 20260506135718 | 15 | 304 | 8.0 | 19.3 | 0.00 | 0.25 | 0.13 | 85 | 1010.8 |
| 20260506135004 | 15 | 321 | 6.4 | 14.5 | 0.00 | 0.25 | 0.13 | 85 | 1010.8 |
| 20260506134504 | 15 | 326 | 4.8 | 14.5 | 0.00 | 0.25 | 0.13 | 85 | 1010.8 |
| 20260506134006 | 15 | 321 | 4.8 | 17.7 | 0.00 | 0.25 | 0.13 | 86 | 1010.9 |
| 20260506133505 | 15 | 335 | 8.0 | 22.5 | 0.00 | 0.25 | 0.13 | 85 | 1011.0 |
| 20260506133004 | 15 | 343 | 9.7 | 22.5 | 0.00 | 0.25 | 0.13 | 84 | 1010.9 |
| 20260506132504 | 15 | 337 | 8.0 | 16.1 | 0.00 | 0.25 | 0.13 | 85 | 1010.9 |
| 20260506132005 | 15 | 347 | 4.8 | 9.7 | 0.00 | 0.25 | 0.13 | 84 | 1011.0 |
| 20260506131505 | 15 | 357 | 1.6 | 6.4 | 0.00 | 0.25 | 0.13 | 85 | 1011.0 |
| 20260506131004 | 15 | 323 | 1.6 | 9.7 | 0.00 | 0.25 | 0.13 | 85 | 1011.0 |
| 20260506130504 | 15 | 336 | 4.8 | 11.3 | 0.00 | 0.25 | 0.13 | 84 | 1010.9 |
| 20260506130216 | 15 | 341 | 4.8 | 11.3 | 0.00 | 0.25 | 0.13 | 84 | 1010.9 |
| 20260506125504 | 15 | 339 | 4.8 | 8.0 | 0.00 | 0.25 | 0.13 | 85 | 1011.1 |
| 20260506125005 | 15 | 332 | 4.8 | 9.7 | 0.00 | 0.25 | 0.13 | 85 | 1011.1 |
| 20260506124715 | 15 | 337 | 6.4 | 20.9 | 0.00 | 0.25 | 0.13 | 85 | 1011.2 |
| 20260506124006 | 15 | 326 | 8.0 | 20.9 | 0.00 | 0.25 | 0.13 | 84 | 1011.0 |
| 20260506123504 | 15 | 319 | 6.4 | 16.1 | 0.03 | 0.25 | 0.13 | 85 | 1011.2 |
| 20260506123004 | 15 | 313 | 6.4 | 16.1 | 0.03 | 0.25 | 0.13 | 85 | 1011.2 |
| 20260506122504 | 15 | 313 | 8.0 | 16.1 | 0.03 | 0.25 | 0.13 | 86 | 1011.2 |
| 20260506122004 | 15 | 327 | 6.4 | 14.5 | 0.03 | 0.25 | 0.13 | 87 | 1011.4 |
| 20260506121504 | 15 | 332 | 8.0 | 12.9 | 0.03 | 0.25 | 0.13 | 87 | 1011.4 |
| 20260506121004 | 15 | 324 | 6.4 | 12.9 | 0.03 | 0.25 | 0.13 | 87 | 1011.4 |
| 20260506120505 | 15 | 333 | 3.2 | 8.0 | 0.03 | 0.25 | 0.13 | 89 | 1011.4 |
| 20260506120007 | 15 | 326 | 1.6 | 8.0 | 0.03 | 0.25 | 0.13 | 88 | 1011.4 |
| 20260506115504 | 15 | 314 | 1.6 | 6.4 | 0.03 | 0.25 | 0.13 | 87 | 1011.4 |
| 20260506115005 | 15 | 315 | 3.2 | 8.0 | 0.03 | 0.25 | 0.13 | 87 | 1011.4 |
| 20260506114504 | 15 | 318 | 3.2 | 9.7 | 0.03 | 0.25 | 0.13 | 87 | 1011.5 |
| 20260506114005 | 15 | 336 | 4.8 | 9.7 | 0.03 | 0.25 | 0.13 | 87 | 1011.5 |
| 20260506113716 | 15 | 337 | 3.2 | 8.0 | 0.00 | 0.23 | 0.10 | 86 | 1011.6 |
| 20260506113006 | 15 | 316 | 3.2 | 11.3 | 0.00 | 0.23 | 0.10 | 85 | 1011.6 |
| 20260506112717 | 15 | 314 | 4.8 | 16.1 | 0.00 | 0.23 | 0.10 | 85 | 1011.6 |
| 20260506112004 | 15 | 313 | 4.8 | 16.1 | 0.00 | 0.23 | 0.10 | 85 | 1011.7 |
| 20260506111504 | 15 | 322 | 6.4 | 16.1 | 0.00 | 0.23 | 0.10 | 84 | 1011.8 |
| 20260506111216 | 15 | 325 | 4.8 | 16.1 | 0.00 | 0.23 | 0.10 | 85 | 1011.8 |
| 20260506110509 | 15 | 310 | 4.8 | 14.5 | 0.00 | 0.23 | 0.10 | 84 | 1011.8 |
| 20260506110217 | 15 | 310 | 4.8 | 14.5 | 0.00 | 0.23 | 0.10 | 84 | 1011.8 |
| 20260506105504 | 15 | 311 | 4.8 | 11.3 | 0.00 | 0.23 | 0.10 | 84 | 1012.0 |
| 20260506105005 | 15 | 305 | 4.8 | 12.9 | 0.03 | 0.23 | 0.10 | 85 | 1012.3 |
| 20260506104504 | 15 | 314 | 4.8 | 14.5 | 0.03 | 0.23 | 0.10 | 84 | 1012.1 |
| 20260506104004 | 15 | 2 | 6.4 | 20.9 | 0.03 | 0.23 | 0.10 | 83 | 1012.1 |
| 20260506103504 | 15 | 359 | 8.0 | 20.9 | 0.03 | 0.23 | 0.10 | 84 | 1012.1 |
| 20260506103006 | 15 | 331 | 6.4 | 14.5 | 0.03 | 0.23 | 0.10 | 85 | 1012.2 |
| 20260506102504 | 15 | 324 | 4.8 | 14.5 | 0.03 | 0.23 | 0.10 | 86 | 1012.3 |
| 20260506102004 | 15 | 327 | 4.8 | 14.5 | 0.03 | 0.23 | 0.10 | 86 | 1012.2 |
| 20260506101504 | 15 | 342 | 3.2 | 11.3 | 0.03 | 0.23 | 0.10 | 86 | 1012.2 |
| 20260506101004 | 15 | 13 | 3.2 | 11.3 | 0.03 | 0.23 | 0.10 | 86 | 1012.3 |
| 20260506100504 | 15 | 342 | 3.2 | 8.0 | 0.03 | 0.23 | 0.10 | 86 | 1012.4 |
| 20260506100007 | 15 | 305 | 3.2 | 8.0 | 0.03 | 0.23 | 0.10 | 86 | 1012.4 |
| 20260506095504 | 15 | 313 | 3.2 | 8.0 | 0.03 | 0.23 | 0.10 | 87 | 1012.4 |
| 20260506095006 | 15 | 139 | 4.8 | 16.1 | 0.00 | 0.23 | 0.08 | 86 | 1012.4 |
| 20260506094504 | 15 | 133 | 6.4 | 17.7 | 0.00 | 0.23 | 0.08 | 85 | 1012.4 |
| 20260506094004 | 15 | 138 | 4.8 | 17.7 | 0.00 | 0.23 | 0.08 | 86 | 1012.4 |
| 20260506093717 | 15 | 128 | 4.8 | 16.1 | 0.00 | 0.23 | 0.08 | 85 | 1012.3 |
| 20260506093004 | 15 | 99 | 3.2 | 8.0 | 0.00 | 0.23 | 0.08 | 85 | 1012.3 |
| 20260506092506 | 15 | 34 | 1.6 | 6.4 | 0.00 | 0.23 | 0.08 | 86 | 1012.3 |
| 20260506092004 | 16 | 353 | 1.6 | 6.4 | 0.00 | 0.23 | 0.08 | 86 | 1012.4 |
| 20260506091504 | 15 | 314 | 3.2 | 12.9 | 0.00 | 0.23 | 0.08 | 86 | 1012.4 |
| 20260506091004 | 15 | 304 | 3.2 | 12.9 | 0.00 | 0.23 | 0.08 | 86 | 1012.4 |
| 20260506090504 | 15 | 288 | 3.2 | 11.3 | 0.00 | 0.23 | 0.08 | 87 | 1012.4 |
| 20260506090218 | 15 | 283 | 3.2 | 11.3 | 0.00 | 0.23 | 0.08 | 86 | 1012.4 |
| 20260506085504 | 15 | 289 | 3.2 | 8.0 | 0.00 | 0.23 | 0.08 | 85 | 1012.3 |
| 20260506085214 | 15 | 299 | 3.2 | 8.0 | 0.00 | 0.23 | 0.08 | 86 | 1012.3 |
| 20260506084717 | 15 | 301 | 1.6 | 6.4 | 0.00 | 0.23 | 0.08 | 87 | 1012.4 |
| 20260506084006 | 15 | 277 | 1.6 | 8.0 | 0.00 | 0.23 | 0.08 | 88 | 1012.1 |
| 20260506083504 | 15 | 260 | 1.6 | 8.0 | 0.00 | 0.23 | 0.08 | 89 | 1012.1 |
| 20260506083004 | 15 | 219 | 0.0 | 3.2 | 0.00 | 0.23 | 0.08 | 90 | 1012.1 |
| 20260506082504 | 14 | 179 | 1.6 | 4.8 | 0.00 | 0.23 | 0.08 | 90 | 1012.1 |
| 20260506082004 | 14 | 135 | 1.6 | 4.8 | 0.00 | 0.23 | 0.08 | 90 | 1012.1 |
| 20260506081504 | 14 | 131 | 3.2 | 6.4 | 0.00 | 0.23 | 0.08 | 90 | 1012.1 |
| 20260506081004 | 14 | 129 | 3.2 | 6.4 | 0.00 | 0.23 | 0.08 | 90 | 1012.1 |
| 20260506080504 | 14 | 109 | 1.6 | 4.8 | 0.03 | 0.23 | 0.08 | 91 | 1012.1 |
| 20260506073506 | 13 | 41 | 1.6 | 3.2 | 0.08 | 0.23 | 0.08 | 92 | 1012.4 |
| 20260506073004 | 13 | 53 | 0.0 | 3.2 | 0.08 | 0.23 | 0.08 | 92 | 1012.4 |
| 20260506072504 | 13 | 344 | 1.6 | 4.8 | 0.08 | 0.23 | 0.08 | 92 | 1012.4 |
| 20260506072004 | 13 | 352 | 1.6 | 4.8 | 0.08 | 0.23 | 0.08 | 91 | 1012.4 |
| 20260506071504 | 13 | 10 | 0.0 | 4.8 | 0.08 | 0.23 | 0.08 | 91 | 1012.4 |
| 20260506071005 | 13 | 349 | 3.2 | 8.0 | 0.08 | 0.23 | 0.08 | 90 | 1012.5 |
| 20260506070504 | 13 | 340 | 3.2 | 8.0 | 0.05 | 0.20 | 0.05 | 89 | 1012.5 |
| 20260506062504 | 15 | 267 | 3.2 | 8.0 | 0.00 | 0.15 | 0.00 | 80 | 1012.3 |
| 20260506062004 | 15 | 251 | 3.2 | 9.7 | 0.00 | 0.15 | 0.00 | 81 | 1012.2 |
| 20260506061504 | 15 | 246 | 3.2 | 11.3 | 0.00 | 0.15 | 0.00 | 81 | 1012.1 |
| 20260506061214 | 15 | 243 | 4.8 | 11.3 | 0.00 | 0.15 | 0.00 | 81 | 1012.1 |
| 20260506060504 | 15 | 221 | 3.2 | 11.3 | 0.00 | 0.15 | 0.00 | 80 | 1012.0 |
| 20260506060220 | 15 | 189 | 4.8 | 14.5 | 0.00 | 0.15 | 0.00 | 80 | 1012.0 |
| 20260506051005 | 14 | 206 | 3.2 | 11.3 | 0.00 | 0.15 | 0.00 | 83 | 1012.0 |
| 20260506050718 | 13 | 230 | 1.6 | 11.3 | 0.00 | 0.15 | 0.00 | 84 | 1011.9 |
| 20260506045004 | 13 | 270 | 1.6 | 8.0 | 0.00 | 0.15 | 0.00 | 85 | 1011.8 |
| 20260506044715 | 13 | 271 | 1.6 | 8.0 | 0.00 | 0.15 | 0.00 | 84 | 1011.8 |
| 20260506044004 | 13 | 238 | 3.2 | 11.3 | 0.00 | 0.15 | 0.00 | 84 | 1011.7 |
| 20260506043716 | 13 | 226 | 3.2 | 11.3 | 0.00 | 0.15 | 0.00 | 84 | 1011.7 |
| 20260506043004 | 13 | 177 | 4.8 | 12.9 | 0.00 | 0.15 | 0.00 | 84 | 1011.8 |
| 20260506042505 | 13 | 167 | 4.8 | 12.9 | 0.00 | 0.15 | 0.00 | 84 | 1011.8 |
| 20260506042215 | 13 | 160 | 6.4 | 12.9 | 0.00 | 0.15 | 0.00 | 83 | 1011.8 |
| 20260506041504 | 13 | 178 | 3.2 | 9.7 | 0.00 | 0.15 | 0.00 | 84 | 1011.9 |
| 20260506041004 | 13 | 192 | 4.8 | 16.1 | 0.00 | 0.15 | 0.00 | 85 | 1011.9 |
| 20260506040719 | 13 | 192 | 4.8 | 16.1 | 0.00 | 0.15 | 0.00 | 85 | 1011.9 |
| 20260506040006 | 13 | 257 | 1.6 | 9.7 | 0.00 | 0.15 | 0.00 | 86 | 1012.0 |
| 20260506035505 | 13 | 245 | 1.6 | 9.7 | 0.00 | 0.15 | 0.00 | 86 | 1012.0 |
| 20260506035004 | 13 | 243 | 0.0 | 3.2 | 0.00 | 0.15 | 0.00 | 86 | 1012.2 |
| 20260506034504 | 13 | 306 | 1.6 | 11.3 | 0.00 | 0.15 | 0.00 | 86 | 1012.1 |
| 20260506034004 | 13 | 318 | 4.8 | 14.5 | 0.00 | 0.15 | 0.00 | 86 | 1012.1 |
| 20260506033506 | 13 | 319 | 4.8 | 14.5 | 0.00 | 0.15 | 0.00 | 86 | 1012.0 |
| 20260506033005 | 13 | 315 | 3.2 | 8.0 | 0.00 | 0.15 | 0.00 | 87 | 1012.1 |
| 20260506032505 | 13 | 329 | 1.6 | 8.0 | 0.00 | 0.15 | 0.00 | 87 | 1012.2 |
| 20260506032005 | 13 | 121 | 0.0 | 1.6 | 0.00 | 0.15 | 0.00 | 87 | 1012.1 |
| 20260506031504 | 13 | 107 | 1.6 | 4.8 | 0.00 | 0.15 | 0.00 | 87 | 1012.1 |
| 20260506031004 | 13 | 47 | 1.6 | 9.7 | 0.00 | 0.15 | 0.00 | 87 | 1012.1 |
| 20260506030505 | 13 | 136 | 1.6 | 9.7 | 0.00 | 0.15 | 0.00 | 87 | 1012.0 |
| 20260506030005 | 13 | 176 | 1.6 | 8.0 | 0.00 | 0.15 | 0.00 | 87 | 1012.2 |
| 20260506025504 | 13 | 307 | 1.6 | 8.0 | 0.00 | 0.15 | 0.00 | 87 | 1012.2 |
| 20260506025006 | 13 | 316 | 1.6 | 8.0 | 0.00 | 0.15 | 0.00 | 86 | 1012.2 |
| 20260506024504 | 13 | 334 | 1.6 | 11.3 | 0.00 | 0.15 | 0.00 | 86 | 1012.2 |
| 20260506024004 | 13 | 316 | 3.2 | 11.3 | 0.00 | 0.15 | 0.00 | 86 | 1012.2 |
| 20260506023504 | 13 | 269 | 3.2 | 11.3 | 0.00 | 0.15 | 0.00 | 86 | 1012.3 |
| 20260506023004 | 13 | 248 | 3.2 | 11.3 | 0.00 | 0.15 | 0.00 | 86 | 1012.2 |
| 20260506022504 | 13 | 245 | 3.2 | 11.3 | 0.00 | 0.15 | 0.00 | 86 | 1012.3 |
| 20260506022006 | 13 | 249 | 1.6 | 11.3 | 0.00 | 0.15 | 0.00 | 86 | 1012.3 |
| 20260506021504 | 13 | 312 | 3.2 | 20.9 | 0.00 | 0.15 | 0.00 | 87 | 1012.3 |
| 20260506021004 | 13 | 315 | 3.2 | 20.9 | 0.00 | 0.15 | 0.00 | 87 | 1012.4 |
| 20260506020507 | 13 | 327 | 1.6 | 4.8 | 0.00 | 0.15 | 0.00 | 88 | 1012.4 |
| 20260506020006 | 13 | 339 | 1.6 | 4.8 | 0.00 | 0.15 | 0.00 | 88 | 1012.3 |
| 20260506015504 | 13 | 124 | 0.0 | 3.2 | 0.00 | 0.15 | 0.00 | 87 | 1012.3 |
| 20260506015004 | 13 | 120 | 1.6 | 3.2 | 0.00 | 0.15 | 0.00 | 87 | 1012.3 |
| 20260506014506 | 13 | 120 | 1.6 | 9.7 | 0.00 | 0.15 | 0.00 | 87 | 1012.2 |
| 20260506014004 | 13 | 131 | 1.6 | 9.7 | 0.00 | 0.15 | 0.00 | 87 | 1012.2 |
| 20260506013504 | 13 | 143 | 1.6 | 8.0 | 0.00 | 0.15 | 0.00 | 87 | 1012.1 |
| 20260506013004 | 13 | 293 | 3.2 | 11.3 | 0.00 | 0.15 | 0.00 | 86 | 1012.2 |
| 20260506012504 | 13 | 285 | 3.2 | 11.3 | 0.00 | 0.15 | 0.00 | 86 | 1012.1 |
| 20260506012216 | 13 | 234 | 1.6 | 6.4 | 0.00 | 0.15 | 0.00 | 86 | 1012.1 |
| 20260506011504 | 13 | 263 | 1.6 | 8.0 | 0.00 | 0.15 | 0.00 | 87 | 1012.2 |
| 20260506011217 | 13 | 271 | 1.6 | 8.0 | 0.00 | 0.15 | 0.00 | 87 | 1012.1 |
| 20260506010504 | 13 | 300 | 0.0 | 6.4 | 0.00 | 0.15 | 0.00 | 87 | 1012.0 |
| 20260506010218 | 13 | 291 | 0.0 | 1.6 | 0.00 | 0.15 | 0.00 | 87 | 1012.0 |
| 20260506005504 | 13 | 315 | 3.2 | 11.3 | 0.00 | 0.15 | 0.00 | 86 | 1012.0 |
| 20260506005004 | 13 | 308 | 4.8 | 11.3 | 0.00 | 0.15 | 0.00 | 87 | 1011.8 |
| 20260506004506 | 13 | 297 | 3.2 | 11.3 | 0.00 | 0.15 | 0.00 | 87 | 1012.2 |
| 20260506004004 | 13 | 135 | 1.6 | 9.7 | 0.00 | 0.15 | 0.00 | 87 | 1012.2 |
| 20260506003718 | 13 | 125 | 3.2 | 9.7 | 0.00 | 0.15 | 0.00 | 87 | 1012.1 |
| 20260506003006 | 13 | 178 | 1.6 | 9.7 | 0.00 | 0.15 | 0.00 | 86 | 1012.3 |
| 20260506002504 | 13 | 258 | 1.6 | 9.7 | 0.00 | 0.15 | 0.00 | 86 | 1012.2 |
| 20260506002006 | 13 | 232 | 1.6 | 6.4 | 0.00 | 0.15 | 0.00 | 86 | 1012.3 |
| 20260506001504 | 13 | 250 | 3.2 | 9.7 | 0.00 | 0.15 | 0.00 | 86 | 1012.2 |
| 20260506001218 | 13 | 254 | 1.6 | 9.7 | 0.00 | 0.15 | 0.00 | 86 | 1012.3 |
| 20260506000504 | 13 | 258 | 1.6 | 8.0 | 0.00 | 0.15 | 0.00 | 86 | 1012.4 |
| 20260506000005 | 13 | 293 | 1.6 | 6.4 | 0.00 | 0.15 | 0.00 | 86 | 1012.5 |
| 20260505235717 | 13 | 269 | 0.0 | 4.8 | 0.00 | 0.15 | 0.00 | 86 | 1012.5 |
| 20260505235004 | 13 | 310 | 1.6 | 4.8 | 0.00 | 0.15 | 0.00 | 86 | 1012.6 |
| 20260505234504 | 13 | 308 | 3.2 | 9.7 | 0.00 | 0.15 | 0.00 | 86 | 1012.5 |
| 20260505234006 | 13 | 317 | 4.8 | 17.7 | 0.00 | 0.15 | 0.00 | 86 | 1012.7 |
| 20260505233504 | 13 | 330 | 4.8 | 17.7 | 0.00 | 0.15 | 0.00 | 86 | 1012.7 |
| 20260505233004 | 13 | 340 | 4.8 | 12.9 | 0.00 | 0.15 | 0.00 | 86 | 1012.6 |
| 20260505232504 | 13 | 342 | 4.8 | 12.9 | 0.00 | 0.15 | 0.00 | 86 | 1012.7 |
| 20260505232005 | 13 | 328 | 3.2 | 11.3 | 0.00 | 0.15 | 0.00 | 85 | 1012.7 |
| 20260505231506 | 13 | 335 | 4.8 | 14.5 | 0.00 | 0.15 | 0.00 | 86 | 1012.7 |
| 20260505231006 | 13 | 337 | 3.2 | 14.5 | 0.00 | 0.15 | 0.00 | 86 | 1012.5 |
| 20260505230504 | 13 | 351 | 3.2 | 11.3 | 0.00 | 0.15 | 0.00 | 85 | 1012.7 |
| 20260505230007 | 13 | 16 | 3.2 | 11.3 | 0.00 | 0.15 | 0.00 | 85 | 1012.6 |
| 20260505225504 | 13 | 326 | 4.8 | 17.7 | 0.00 | 0.15 | 0.00 | 85 | 1012.7 |
| 20260505225215 | 13 | 277 | 4.8 | 17.7 | 0.00 | 0.15 | 0.00 | 85 | 1012.5 |
| 20260505224713 | 13 | 325 | 4.8 | 12.9 | 0.00 | 0.15 | 0.00 | 85 | 1012.7 |
| 20260505224006 | 13 | 1 | 4.8 | 14.5 | 0.00 | 0.15 | 0.00 | 85 | 1012.6 |
| 20260505223714 | 13 | 340 | 3.2 | 17.7 | 0.00 | 0.15 | 0.00 | 85 | 1012.7 |
| 20260505223217 | 13 | 337 | 4.8 | 19.3 | 0.00 | 0.15 | 0.00 | 86 | 1012.7 |
| 20260505222505 | 13 | 344 | 4.8 | 11.3 | 0.00 | 0.15 | 0.00 | 86 | 1012.6 |
| 20260505222004 | 13 | 328 | 6.4 | 11.3 | 0.00 | 0.15 | 0.00 | 86 | 1012.7 |
| 20260505221505 | 13 | 316 | 4.8 | 11.3 | 0.00 | 0.15 | 0.00 | 86 | 1012.8 |
| 20260505221005 | 13 | 309 | 3.2 | 11.3 | 0.00 | 0.15 | 0.00 | 87 | 1012.7 |
| 20260505220808 | 13 | 307 | 3.2 | 9.7 | 0.00 | 0.15 | 0.00 | 87 | 1012.8 |
| 20260505220504 | 13 | 304 | 3.2 | 6.4 | 0.00 | 0.15 | 0.00 | 86 | 1012.7 |
| 20260505215718 | 13 | 282 | 1.6 | 4.8 | 0.00 | 0.15 | 0.15 | 86 | 1012.9 |
| 20260505215004 | 13 | 289 | 3.2 | 12.9 | 0.00 | 0.15 | 0.15 | 85 | 1013.0 |
| 20260505214504 | 13 | 301 | 4.8 | 24.1 | 0.00 | 0.15 | 0.15 | 85 | 1013.0 |
| 20260505214006 | 13 | 303 | 4.8 | 24.1 | 0.00 | 0.15 | 0.15 | 85 | 1013.0 |
| 20260505213720 | 13 | 290 | 3.2 | 11.3 | 0.00 | 0.15 | 0.15 | 86 | 1013.1 |
| 20260505213004 | 13 | 294 | 6.4 | 14.5 | 0.00 | 0.15 | 0.15 | 85 | 1013.0 |
| 20260505212505 | 13 | 298 | 8.0 | 20.9 | 0.00 | 0.15 | 0.15 | 85 | 1013.2 |
| 20260505212005 | 13 | 299 | 8.0 | 20.9 | 0.00 | 0.15 | 0.15 | 85 | 1013.2 |
| 20260505211504 | 13 | 303 | 8.0 | 17.7 | 0.00 | 0.15 | 0.15 | 85 | 1013.3 |
| 20260505211004 | 13 | 302 | 6.4 | 17.7 | 0.00 | 0.15 | 0.15 | 86 | 1013.2 |
| 20260505210504 | 13 | 250 | 4.8 | 14.5 | 0.00 | 0.15 | 0.15 | 86 | 1013.1 |
| 20260505210007 | 13 | 243 | 4.8 | 14.5 | 0.00 | 0.15 | 0.15 | 86 | 1013.4 |
| 20260505205714 | 13 | 289 | 4.8 | 14.5 | 0.00 | 0.15 | 0.15 | 86 | 1013.3 |
| 20260505205005 | 13 | 314 | 6.4 | 19.3 | 0.00 | 0.15 | 0.15 | 87 | 1013.2 |
| 20260505204506 | 13 | 304 | 8.0 | 19.3 | 0.00 | 0.15 | 0.15 | 87 | 1013.1 |
| 20260505204006 | 13 | 301 | 8.0 | 20.9 | 0.00 | 0.15 | 0.15 | 87 | 1013.0 |
| 20260505203715 | 13 | 286 | 8.0 | 20.9 | 0.00 | 0.15 | 0.15 | 87 | 1013.1 |
| 20260505203004 | 13 | 291 | 8.0 | 25.7 | 0.00 | 0.15 | 0.15 | 88 | 1013.0 |
| 20260505202506 | 13 | 262 | 11.3 | 27.4 | 0.00 | 0.15 | 0.15 | 88 | 1013.0 |
| 20260505202005 | 13 | 251 | 14.5 | 33.8 | 0.00 | 0.15 | 0.15 | 87 | 1013.0 |
| 20260505201504 | 13 | 254 | 14.5 | 33.8 | 0.00 | 0.15 | 0.15 | 88 | 1012.7 |
| 20260505201005 | 13 | 269 | 14.5 | 30.6 | 0.00 | 0.15 | 0.15 | 88 | 1012.6 |
| 20260505200718 | 13 | 271 | 14.5 | 30.6 | 0.00 | 0.15 | 0.15 | 87 | 1012.5 |
| 20260505200005 | 13 | 261 | 12.9 | 33.8 | 0.00 | 0.15 | 0.15 | 88 | 1012.3 |
| 20260505195504 | 13 | 271 | 11.3 | 32.2 | 0.00 | 0.15 | 0.15 | 88 | 1012.6 |
| 20260505195217 | 13 | 280 | 9.7 | 24.1 | 0.03 | 0.15 | 0.15 | 88 | 1012.6 |
| 20260505194504 | 13 | 275 | 11.3 | 25.7 | 0.03 | 0.15 | 0.15 | 88 | 1012.7 |
| 20260505194218 | 13 | 277 | 11.3 | 25.7 | 0.05 | 0.15 | 0.15 | 89 | 1012.6 |
| 20260505193504 | 13 | 274 | 9.7 | 24.1 | 0.05 | 0.15 | 0.15 | 89 | 1012.8 |
| 20260505193006 | 13 | 263 | 8.0 | 24.1 | 0.05 | 0.15 | 0.15 | 89 | 1012.8 |
| 20260505192504 | 13 | 281 | 8.0 | 19.3 | 0.05 | 0.15 | 0.15 | 89 | 1012.8 |
| 20260505192004 | 13 | 296 | 8.0 | 22.5 | 0.05 | 0.15 | 0.15 | 89 | 1012.8 |
| 20260505191506 | 13 | 295 | 6.4 | 22.5 | 0.05 | 0.15 | 0.15 | 90 | 1012.8 |
| 20260505191004 | 12 | 289 | 4.8 | 12.9 | 0.10 | 0.15 | 0.15 | 91 | 1012.7 |
| 20260505190504 | 12 | 294 | 3.2 | 8.0 | 0.10 | 0.15 | 0.15 | 91 | 1012.8 |
| 20260505190005 | 12 | 312 | 4.8 | 17.7 | 0.10 | 0.15 | 0.15 | 90 | 1012.8 |
| 20260505185504 | 12 | 317 | 4.8 | 17.7 | 0.10 | 0.15 | 0.15 | 91 | 1012.8 |
| 20260505185004 | 12 | 323 | 1.6 | 9.7 | 0.10 | 0.13 | 0.13 | 91 | 1012.8 |
| 20260505184504 | 12 | 317 | 1.6 | 9.7 | 0.10 | 0.13 | 0.13 | 91 | 1012.8 |
| 20260505184004 | 12 | 325 | 4.8 | 11.3 | 0.08 | 0.10 | 0.10 | 91 | 1012.8 |
| 20260505183506 | 12 | 338 | 3.2 | 11.3 | 0.10 | 0.10 | 0.10 | 91 | 1012.7 |
| 20260505183004 | 12 | 6 | 1.6 | 6.4 | 0.10 | 0.10 | 0.10 | 91 | 1012.6 |
| 20260505182504 | 12 | 335 | 3.2 | 9.7 | 0.10 | 0.10 | 0.10 | 90 | 1012.7 |
| 20260505182006 | 12 | 304 | 3.2 | 9.7 | 0.10 | 0.10 | 0.10 | 90 | 1012.6 |
| 20260505181719 | 12 | 280 | 3.2 | 9.7 | 0.08 | 0.08 | 0.08 | 90 | 1012.8 |
| 20260505181004 | 12 | 290 | 3.2 | 9.7 | 0.05 | 0.05 | 0.05 | 89 | 1012.7 |
| 20260505180504 | 13 | 267 | 3.2 | 9.7 | 0.05 | 0.05 | 0.05 | 89 | 1012.7 |
| 20260505180218 | 12 | 280 | 3.2 | 9.7 | 0.05 | 0.05 | 0.05 | 90 | 1012.9 |
| 20260505175506 | 12 | 319 | 1.6 | 6.4 | 0.05 | 0.05 | 0.05 | 90 | 1012.8 |
| 20260505175006 | 12 | 290 | 0.0 | 3.2 | 0.03 | 0.03 | 0.03 | 90 | 1012.8 |
| 20260505174504 | 12 | 320 | 1.6 | 3.2 | 0.03 | 0.03 | 0.03 | 89 | 1012.7 |
| 20260505174004 | 12 | 309 | 1.6 | 3.2 | 0.03 | 0.03 | 0.03 | 89 | 1012.7 |
| 20260505173504 | 13 | 320 | 1.6 | 9.7 | 0.00 | 0.00 | 0.00 | 88 | 1012.9 |
| 20260505173006 | 13 | 319 | 3.2 | 9.7 | 0.00 | 0.00 | 0.00 | 87 | 1012.8 |
| 20260505172505 | 13 | 302 | 4.8 | 16.1 | 0.00 | 0.00 | 0.00 | 86 | 1012.9 |
| 20260505172005 | 13 | 274 | 4.8 | 16.1 | 0.00 | 0.00 | 0.00 | 85 | 1012.9 |
| 20260505171504 | 13 | 272 | 3.2 | 11.3 | 0.00 | 0.00 | 0.00 | 84 | 1012.9 |
| 20260505171004 | 13 | 296 | 1.6 | 8.0 | 0.00 | 0.00 | 0.00 | 84 | 1013.0 |
| 20260505170504 | 13 | 271 | 1.6 | 9.7 | 0.00 | 0.00 | 0.00 | 84 | 1012.9 |
| 20260505170005 | 13 | 271 | 1.6 | 9.7 | 0.00 | 0.00 | 0.00 | 83 | 1013.0 |